Hourly Data Report for May 17, 2012

All times are specified in Local Standard Time (LST). Add 1 hour to adjust for Daylight Saving Time where and when it is observed.

YARMOUTH A
NOVA SCOTIA

43°49'37.000" N
66°05'17.000" W
42.90 m
8206495
71603
YQI

Download Data

Hourly Data (May 2012)
Hourly Data Report for May 17, 2012
Temp Definition
°C
Dew Point Temp Definition
°C
Rel Hum Definition
%
Wind Dir Definition
10's deg

Wind Spd Definition
km/h
Visibility Definition
km
Stn Press Definition
kPa
Hmdx Definition


Wind Chill Definition


Weather Definition


TIME
00:00 11.8 11.8 100 20 22 1.6 100.85     Fog
01:00 11.4 11.6 101 20 23 1.2 100.78     Drizzle,Fog
02:00 12.0 12.2 101 21 27 2.4 100.77     Rain Showers,Fog
03:00 12.9 13.1 101 22 26 0.6 100.72     Drizzle,Fog
04:00 12.4 12.6 101 21 26 0.8 100.70     Fog
05:00 11.7 11.9 101 21 18 0.8 100.70     Drizzle,Fog
06:00 12.6 12.8 101 21 19 0.8 100.69     Fog
07:00 11.6 11.8 101 20 15 0.4 100.75     Drizzle,Fog
08:00 11.8 12.0 101 23 21 0.6 100.75     Fog
09:00 11.6 11.8 101 24 22 0.8 100.78     Fog
10:00 10.7 10.9 101 26 19 0.6 100.79     Fog
11:00 11.0 11.2 101 27 21 0.6 100.84     Fog
12:00 10.7 10.7 100 29 19 0.8 100.87     Fog
13:00 11.6 11.1 97 30 14 4.8 100.89     Fog
14:00 11.6 11.5 99 30 13 2.4 100.91     Fog
15:00 13.8 12.4 91 29 12 10.0 100.95     LegendNANA
16:00 14.6 10.3 75 30 16 10.0 101.00     LegendNANA
17:00 13.8 7.8 67 31 19 10.0 101.03     Mostly Cloudy
18:00 13.0 6.4 64 31 23 10.0 101.07     LegendNANA
19:00 11.5 6.1 69 33 14 10.0 101.15     LegendNANA
20:00 9.5 5.3 75 35 11 10.0 101.24     Mainly Clear
21:00 8.4 5.0 79 31 11 10.0 101.33     LegendNANA
22:00 7.6 5.1 84 30 10 10.0 101.40     LegendNANA
23:00 7.2 5.0 86 32 9 10.0 101.44     Mainly Clear

Notes on Data Quality.

Legend

  • E = Estimated
  • M = Missing
  • NA = Not Available
Date modified: